Content
SEND FEEDBACK

Daily
Averages
Monthly
Summary
Italy

TURIN, ITALY


Home > Europe > Italy
Elevation: 941 feet     Latitude: 45 13N     Longitude: 007 39E

WEATHER
 
SELECT A DAY
Number of Records: 311,224;   Date Range: 7/1/96 - 11/22/14
 
SHARE

PRINT THIS DATA

[ ← Previous Day ]
WEATHER ALMANAC - NOVEMBER 9, 2013
[ Next Day → ]
[ °C ]   °F
Weather ElementAverageHighLow
Temperature54.1 °F60.8 °F (1:20 pm)42.8 °F (11:50 pm)
Dewpoint47.6 °F53.6 °F (12:50 am)26.6 °F (11:20 pm)
Humidity79.9 %100 % (12:50 am)46 % (11:20 pm)
Barometer29.85 in29.92 in (12:50 am)29.80 in (4:20 pm)
Wind Speed3.7 mph8.1 mph (8:50 pm)
Weather ElementAverage
Visibility2.2 mi
Wind DirectionS (180.7 °)

Weather ElementTotal
Precipitation---
Heating Degree Days13.2 (Base 65)
Growing Degree Days1.8 (Base 50)
Averaged from 46 records on November 9, 2013
WEATHER CONDITIONS BREAKOUT
WIND DIRECTION BREAKOUT
WEATHER BY HOUR - NOVEMBER 9, 2013
[ °C ]   °F
Local TimeTemperatureDewpointHumidityBarometerVisibilityWind DirectionWind SpeedGust SpeedPrecipitationEventsConditions
12:50 AM53.6 °F53.6 °F100 %29.92 in0.6 miCalmDrizzle
1:20 AM53.6 °F53.6 °F100 %29.92 in0.6 miNorth (10°)2.3 mphOvercast
1:50 AM53.6 °F53.6 °F100 %29.89 in0.6 miCalmMostly Cloudy
2:20 AM53.6 °F51.8 °F94 %29.89 in0.6 miWNW (300°)2.3 mphFogFog
2:50 AM53.6 °F51.8 °F94 %29.89 in0.3 miSSW (210°)2.3 mphFogFog
3:20 AM53.6 °F51.8 °F94 %29.89 in0.1 miCalmFogFog
3:50 AM53.6 °F51.8 °F94 %29.86 in0.1 miCalmFogFog
4:20 AM53.6 °F51.8 °F94 %29.89 in0.1 miSW (220°)3.5 mphFogFog
4:50 AM53.6 °F51.8 °F94 %29.89 in0.7 miSSW (210°)3.5 mphMostly Cloudy
5:20 AM53.6 °F51.8 °F94 %29.89 in0.7 miWest (280°)4.6 mphMostly Cloudy
5:50 AM53.6 °F51.8 °F94 %29.89 in0.7 miNNW (340°)3.5 mphMostly Cloudy
6:20 AM53.6 °F51.8 °F94 %29.89 in0.6 miNorth (10°)3.5 mphLight Drizzle
6:50 AM53.6 °F51.8 °F94 %29.89 in0.7 miVariable2.3 mphDrizzle
7:20 AM53.6 °F51.8 °F94 %29.89 in0.7 miVariable2.3 mphDrizzle
7:50 AM53.6 °F51.8 °F94 %29.89 in0.7 miWNW (300°)3.5 mphDrizzle
8:20 AM53.6 °F51.8 °F94 %29.89 in0.7 miWNW (300°)3.5 mphMostly Cloudy
8:50 AM53.6 °F51.8 °F94 %29.89 in1.1 miSW (230°)4.6 mphScattered Clouds
9:20 AM53.6 °F50.0 °F88 %29.89 in2.2 miWest (270°)5.8 mphPartly Cloudy
9:50 AM55.4 °F50.0 °F82 %29.89 in2.8 miWest (260°)3.5 mphMist
10:20 AM55.4 °F51.8 °F88 %29.89 in2.8 miSouth (190°)3.5 mphScattered Clouds
10:50 AM57.2 °F51.8 °F82 %29.89 in2.2 miSouth (180°)5.8 mphScattered Clouds
11:20 AM57.2 °F51.8 °F82 %29.86 in2.2 miSSW (200°)4.6 mphPartly Cloudy
11:50 AM59.0 °F51.8 °F77 %29.86 in2.2 miSSE (150°)3.5 mphPartly Cloudy
12:20 PM59.0 °F50.0 °F72 %29.86 in2.5 miSSW (200°)4.6 mphMist
12:50 PM59.0 °F50.0 °F72 %29.86 in3.1 miSouth (170°)4.6 mphMist
1:20 PM60.8 °F50.0 °F68 %29.83 in3.1 miSouth (180°)4.6 mphMist
2:20 PM60.8 °F51.8 °F72 %29.83 in3.1 miSSW (210°)6.9 mphPartly Cloudy
2:50 PM60.8 °F51.8 °F72 %29.83 in3.1 miSouth (190°)6.9 mphMist
3:20 PM60.8 °F51.8 °F72 %29.83 in3.1 miSouth (180°)6.9 mphPartly Cloudy
3:50 PM60.8 °F50.0 °F68 %29.83 in3.1 miSouth (170°)3.5 mphPartly Cloudy
4:20 PM60.8 °F50.0 °F68 %29.80 in3.7 miCalm
4:50 PM59.0 °F48.2 °F67 %29.80 in4.3 miCalm
5:20 PM57.2 °F48.2 °F72 %29.80 in3.1 miNW (310°)3.5 mphMist
5:50 PM53.6 °F48.2 °F82 %29.80 in2.5 miNorth (350°)5.8 mphMist
6:20 PM53.6 °F48.2 °F82 %29.83 in2.5 miVariable2.3 mphMist
6:50 PM53.6 °F39.2 °F58 %29.83 inNW (320°)4.6 mphClear
7:20 PM51.8 °F39.2 °F62 %29.83 inCalmClear
7:50 PM50.0 °F39.2 °F66 %29.83 inCalmClear
8:20 PM48.2 °F39.2 °F71 %29.80 inNorth (360°)6.9 mphClear
8:50 PM48.2 °F42.8 °F82 %29.80 inNW (320°)8.1 mphClear
9:20 PM46.4 °F41.0 °F81 %29.80 inWNW (290°)8.1 mphClear
9:50 PM50.0 °F39.2 °F66 %29.80 inWNW (300°)6.9 mphClear
10:20 PM48.2 °F32.0 °F54 %29.80 in6.2 miSW (220°)5.8 mphPartly Cloudy
10:50 PM48.2 °F30.2 °F50 %29.80 in6.2 miWest (270°)3.5 mphPartly Cloudy
11:20 PM46.4 °F26.6 °F46 %29.80 in6.2 miNW (320°)6.9 mphPartly Cloudy
11:50 PM42.8 °F28.4 °F57 %29.80 in6.2 miWNW (290°)3.5 mphPartly Cloudy
Hourly data recorded from LIMF, located miles away from Turin, Italy







STORIES FROM OUR PARTNERS